Surface/Precipitation History
03/27/2015 19:07  to  3/28/2015 19:07
Change End Date:
Date/Time
(MDT)
Sf
Temp Chem Water Layer Surface Precipitation
Sf Sub Frz Factor Pct Depth IcePct Cond Salin Type Intens Accum Rate
03/28/2015 19:01 Wet 50.2F 49F 32F 5 0% 0.00 in 0% 1 mhos 48 Yes - - -
03/28/2015 18:55 Wet 50.4F 49F 32F 10 0% 0.00 in 0% 1 mhos 49 Yes - - -
03/28/2015 18:47 Wet 50.9F 49F 32F 10 0% 0.00 in 0% 1 mhos 48 Yes - - -
03/28/2015 18:45 Wet 51.1F 49F 32F 15 0% 0.00 in 0% 1 mhos 48 Yes - - -
03/28/2015 18:35 Wet 51.4F 49F 32F 15 0% 0.00 in 0% 1 mhos 48 Yes - - -
03/28/2015 18:31 Wet 51.6F 49F 32F 15 0% 0.00 in 0% 1 mhos 47 Yes - - -
03/28/2015 18:25 Wet 51.8F 49F 32F 30 0% 0.00 in 0% 1 mhos 46 Yes - - -
03/28/2015 18:16 Wet 52.2F 49F 32F 25 0% 0.00 in 0% 0 mhos 34 Yes - - -
03/28/2015 18:15 Wet 52.2F 49F 32F 15 0% 0.00 in 0% 0 mhos 34 None None - -
03/28/2015 18:05 Wet 52.3F 49F 32F 50 0% 0.00 in 0% 0 mhos 31 Yes - - -
03/28/2015 18:01 Wet 52.5F 49F 32F 50 0% 0.00 in 0% 0 mhos 30 Yes - - -
03/28/2015 17:55 Wet 53.2F 49F 32F 60 0% 0.00 in 0% 0 mhos 29 None None - -
03/28/2015 17:46 Wet 53.6F 49F 32F 70 0% 0.00 in 0% 0 mhos 27 Yes - - -
03/28/2015 17:45 Wet 53.8F 49F 32F 75 0% 0.00 in 0% 0 mhos 25 Yes - - -
03/28/2015 17:35 Wet 54.1F 49F 32F 35 0% 0.00 in 0% 0 mhos 24 Yes - - -
Date/Time
(MDT)
Sf
Temp Chem Water Layer Surface Precipitation
Sf Sub Frz Factor Pct Depth IcePct Cond Salin Type Intens Accum Rate
03/28/2015 17:31 Wet 54.9F 49F 32F 45 0% 0.00 in 0% 0 mhos 23 Yes - - -
03/28/2015 17:25 Wet 55.4F 49F 32F 45 0% 0.00 in 0% 0 mhos 23 Yes - - -
03/28/2015 17:16 Wet 55.4F 49F 32F 25 0% 0.00 in 0% 0 mhos 25 Yes - - -
03/28/2015 17:15 Wet 55.6F 49F 32F 30 0% 0.00 in 0% 0 mhos 25 Yes - - -
03/28/2015 17:05 Wet 56.1F 49F 32F 5 0% 0.00 in 0% 0 mhos 28 None None - -
03/28/2015 17:01 Wet 56.7F 49F 32F 10 0% 0.00 in 0% 0 mhos 29 Yes - - -
03/28/2015 16:55 Wet 56.5F 49F 32F 5 0% 0.00 in 0% 0 mhos 30 Yes - - -
03/28/2015 16:46 Wet 58.6F 49F 32F 5 0% 0.00 in 0% 0 mhos 32 None None - -
03/28/2015 16:45 Wet 58.6F 49F 32F 10 0% 0.00 in 0% 0 mhos 32 None None - -
03/28/2015 16:35 Wet 58.6F 49F 32F 30 0% 0.00 in 0% 0 mhos 33 None None - -
03/28/2015 16:31 Wet 58.6F 49F 32F 40 0% 0.00 in 0% 0 mhos 34 None None - -
03/28/2015 16:25 Wet 59.9F 49F 32F 50 0% 0.00 in 0% 0 mhos 34 None None - -
03/28/2015 16:16 Wet 65.5F 49F 32F 65 0% 0.00 in 0% 0 mhos 33 None None - -
03/28/2015 16:15 Wet 63.7F 49F 32F 55 0% 0.00 in 0% 0 mhos 33 None None - -
03/28/2015 16:05 Wet 59.5F 49F 32F 50 0% 0.00 in 0% 0 mhos 34 None None - -
Date/Time
(MDT)
Sf
Temp Chem Water Layer Surface Precipitation
Sf Sub Frz Factor Pct Depth IcePct Cond Salin Type Intens Accum Rate
03/28/2015 16:00 Wet 59.9F 49F 32F 40 0% 0.00 in 0% 0 mhos 34 None None - -
03/28/2015 15:55 Wet 65.1F 49F 32F 35 0% 0.00 in 0% 0 mhos 31 Yes - - -
03/28/2015 15:46 Wet 63.3F 49F 32F 5 0% 0.00 in 0% 0 mhos 30 Yes - - -
03/28/2015 15:45 Wet 61.2F 49F 32F 5 0% 0.00 in 0% 0 mhos 31 Yes - - -
03/28/2015 15:35 Wet 58.8F 49F 32F 40 0% 0.00 in 0% 0 mhos 30 Yes - - -
03/28/2015 15:31 Wet 58.6F 49F 32F 20 0% 0.00 in 0% 0 mhos 29 Yes - - -
03/28/2015 15:25 Wet 58.3F 49F 32F 25 0% 0.00 in 0% 0 mhos 29 Yes - - -
03/28/2015 15:16 Wet 57.9F 49F 32F 15 0% 0.00 in 0% 0 mhos 24 Yes - - -
03/28/2015 15:15 Wet 57.0F 49F 32F 15 0% 0.00 in 0% 0 mhos 22 Yes - - -
03/28/2015 15:04 Wet 60.1F 49F 32F 60 0% 0.00 in 0% 0 mhos 19 Yes - - -
03/28/2015 15:01 Wet 61.7F 49F 32F 55 0% 0.00 in 0% 0 mhos 20 None None - -
03/28/2015 14:54 Wet 59.5F 49F 32F 55 0% 0.00 in 0% 0 mhos 20 None None - -
03/28/2015 14:46 Wet 61.5F 49F 32F 45 0% 0.00 in 0% 0 mhos 19 Yes - - -
03/28/2015 14:44 Wet 61.9F 49F 32F 35 0% 0.00 in 0% 0 mhos 19 Yes - - -
03/28/2015 14:34 Wet 63.1F 49F 32F 30 0% 0.00 in 0% 0 mhos 19 None None - -
Date/Time
(MDT)
Sf
Temp Chem Water Layer Surface Precipitation
Sf Sub Frz Factor Pct Depth IcePct Cond Salin Type Intens Accum Rate
03/28/2015 14:31 Wet 64.8F 49F 32F 15 0% 0.00 in 0% 0 mhos 19 Yes - - -
03/28/2015 14:24 Wet 60.8F 49F 32F 50 0% 0.00 in 0% 0 mhos 18 Yes - - -
03/28/2015 14:17 Wet 64.8F 49F 32F 35 0% 0.00 in 0% 0 mhos 19 Yes - - -
03/28/2015 14:14 Wet 63.9F 49F 32F 30 0% 0.00 in 0% 0 mhos 19 None None - -
03/28/2015 14:04 Wet 63.5F 49F 32F 15 0% 0.00 in 0% 0 mhos 19 None None - -
03/28/2015 14:01 Wet 61.7F 49F 32F 10 0% 0.00 in 0% 0 mhos 18 Yes - - -
03/28/2015 13:54 Wet 61.0F 49F 32F 5 0% 0.00 in 0% 0 mhos 17 Yes - - -
03/28/2015 13:47 Wet 54.5F 49F 32F 5 0% 0.00 in 0% 0 mhos 16 Yes - - -
03/28/2015 13:44 Wet 53.8F 49F 32F 5 0% 0.00 in 0% 0 mhos 17 Yes - - -
03/28/2015 13:34 Wet 53.8F 49F 32F 5 0% 0.00 in 0% 0 mhos 22 Yes - - -
03/28/2015 13:31 Wet 54.5F 49F 32F 5 0% 0.00 in 0% 0 mhos 21 Yes - - -
03/28/2015 13:24 Wet 55.8F 49F 32F 5 0% 0.00 in 0% 0 mhos 24 Yes - - -
03/28/2015 13:17 Wet 56.3F 49F 32F 5 0% 0.00 in 0% 0 mhos 24 Yes - - -
03/28/2015 13:14 Wet 56.5F 49F 32F 5 0% 0.00 in 0% 0 mhos 22 Yes - - -
03/28/2015 13:04 Wet 57.4F 49F 32F 20 0% 0.00 in 0% 0 mhos 20 Yes - - -
Date/Time
(MDT)
Sf
Temp Chem Water Layer Surface Precipitation
Sf Sub Frz Factor Pct Depth IcePct Cond Salin Type Intens Accum Rate
03/28/2015 13:01 Wet 57.4F 49F 32F 5 0% 0.00 in 0% 0 mhos 20 Yes - - -
03/28/2015 12:54 Wet 57.4F 49F 32F 5 0% 0.00 in 0% 0 mhos 20 Yes - - -
03/28/2015 12:46 Wet 56.8F 49F 32F 5 0% 0.00 in 0% 0 mhos 21 Yes - - -
03/28/2015 12:44 Wet 56.8F 49F 32F 5 0% 0.00 in 0% 0 mhos 19 Yes - - -
03/28/2015 12:34 Wet 56.3F 49F 32F 5 0% 0.00 in 0% 0 mhos 18 Yes - - -
03/28/2015 12:31 Wet 57.7F 49F 32F 5 0% 0.00 in 0% 0 mhos 15 Yes - - -
03/28/2015 12:24 Wet 54.9F 49F 32F 5 0% 0.00 in 0% 0 mhos 15 Yes - - -
03/28/2015 12:16 Wet 52.9F 49F 32F 5 0% 0.00 in 0% 0 mhos 12 Yes - - -
03/28/2015 12:14 Wet 52.7F 49F 32F 5 0% 0.00 in 0% 0 mhos 11 Yes - - -
03/28/2015 12:04 Wet 49.8F 49F 32F 5 0% 0.00 in 0% 0 mhos 11 Yes - - -
03/28/2015 12:01 Wet 49.6F 49F 32F 5 0% 0.00 in 0% 0 mhos 10 Yes - - -
03/28/2015 11:54 Wet 49.8F 49F 32F 5 0% 0.00 in 0% 0 mhos 11 Yes - - -
03/28/2015 11:46 Wet 48.9F 49F 32F 5 0% 0.00 in 0% 0 mhos 13 Yes - - -
03/28/2015 11:44 Wet 48.9F 49F 32F 5 0% 0.00 in 0% 0 mhos 13 Yes - - -
03/28/2015 11:34 Wet 48.9F 49F 32F 5 0% 0.00 in 0% 0 mhos 11 Yes - - -
Date/Time
(MDT)
Sf
Temp Chem Water Layer Surface Precipitation
Sf Sub Frz Factor Pct Depth IcePct Cond Salin Type Intens Accum Rate
03/28/2015 11:33 Wet 48.9F 49F 32F 5 0% 0.00 in 0% 0 mhos 11 Yes - - -
03/28/2015 11:24 Wet 48.9F 49F 32F 5 0% 0.00 in 0% 0 mhos 9 Yes - - -
03/28/2015 11:16 Wet 48.6F 49F 32F 5 0% 0.00 in 0% 0 mhos 6 Yes - - -
03/28/2015 11:14 Wet 47.8F 49F 32F 5 0% 0.00 in 0% 0 mhos 6 Yes - - -
03/28/2015 11:04 Wet 46.6F 49F 32F 5 0% 0.00 in 0% 0 mhos 7 Yes - - -
03/28/2015 11:01 Wet 46.4F 49F 32F 5 0% 0.00 in 0% 0 mhos 8 Yes - - -
03/28/2015 10:53 Wet 47.1F 49F 32F 5 0% 0.00 in 0% 0 mhos 14 Yes - - -
03/28/2015 10:47 Wet 46.9F 49F 32F 5 0% 0.00 in 0% 0 mhos 16 Yes - - -
03/28/2015 10:43 Wet 47.3F 49F 32F 5 0% 0.00 in 0% 0 mhos 15 Yes - - -
03/28/2015 10:33 Wet 46.9F 49F 32F 5 0% 0.00 in 0% 0 mhos 16 Yes - - -
03/28/2015 10:32 Wet 47.7F 49F 32F 5 0% 0.00 in 0% 0 mhos 14 Yes - - -
03/28/2015 10:23 Wet 47.5F 49F 32F 5 0% 0.00 in 0% 0 mhos 12 Yes - - -
03/28/2015 10:16 Wet 46.0F 49F 32F 5 0% 0.00 in 0% 0 mhos 12 Yes - - -
03/28/2015 10:13 Wet 45.9F 49F 32F 5 0% 0.00 in 0% 0 mhos 14 Yes - - -
03/28/2015 10:03 Wet 46.9F 49F 32F 5 0% 0.00 in 0% 0 mhos 25 Yes - - -
Date/Time
(MDT)
Sf
Temp Chem Water Layer Surface Precipitation
Sf Sub Frz Factor Pct Depth IcePct Cond Salin Type Intens Accum Rate
03/28/2015 10:01 Wet 46.9F 49F 32F 5 0% 0.00 in 0% 0 mhos 24 Yes - - -
03/28/2015 09:53 Wet 46.9F 49F 32F 5 0% 0.00 in 0% 0 mhos 25 Yes - - -
03/28/2015 09:47 Wet 46.4F 49F 32F 5 0% 0.00 in 0% 0 mhos 25 Yes - - -
03/28/2015 09:43 Wet 46.4F 49F 32F 5 0% 0.00 in 0% 0 mhos 22 Yes - - -
03/28/2015 09:33 Wet 46.4F 49F 32F 5 0% 0.00 in 0% 0 mhos 22 Yes - - -
03/28/2015 09:31 Wet 46.6F 49F 32F 5 0% 0.00 in 0% 0 mhos 22 Yes - - -
03/28/2015 09:23 Wet 46.2F 49F 32F 5 0% 0.00 in 0% 0 mhos 23 Yes - - -
03/28/2015 09:17 Wet 46.6F 49F 32F 5 0% 0.00 in 0% 0 mhos 15 Yes - - -
03/28/2015 09:13 Wet 46.6F 49F 32F 5 0% 0.00 in 0% 0 mhos 13 Yes - - -
03/28/2015 09:03 Wet 46.2F 50F 32F 5 0% 0.00 in 0% 0 mhos 14 Yes - - -
03/28/2015 09:01 Wet 46.2F 49F 32F 5 0% 0.00 in 0% 0 mhos 13 Yes - - -
03/28/2015 08:53 Wet 46.2F 50F 32F 10 0% 0.00 in 0% 0 mhos 13 Yes - - -
03/28/2015 08:47 Wet 46.2F 50F 32F 5 0% 0.00 in 0% 0 mhos 13 Yes - - -
03/28/2015 08:43 Wet 46.2F 50F 32F 5 0% 0.00 in 0% 0 mhos 13 Yes - - -
03/28/2015 08:33 Wet 46.0F 50F 32F 5 0% 0.00 in 0% 0 mhos 13 Yes - - -
Date/Time
(MDT)
Sf
Temp Chem Water Layer Surface Precipitation
Sf Sub Frz Factor Pct Depth IcePct Cond Salin Type Intens Accum Rate
03/28/2015 08:31 Wet 46.0F 50F 32F 5 0% 0.00 in 0% 0 mhos 13 Yes - - -
03/28/2015 08:23 Wet 45.9F 50F 32F 5 0% 0.00 in 0% 0 mhos 12 Yes - - -
03/28/2015 08:17 Wet 45.7F 50F 32F 5 0% 0.00 in 0% 0 mhos 12 Yes - - -
03/28/2015 08:13 Wet 45.7F 50F 32F 10 0% 0.00 in 0% 0 mhos 11 Yes - - -
03/28/2015 08:03 Wet 45.7F 50F 32F 5 0% 0.00 in 0% 0 mhos 10 Yes - - -
03/28/2015 08:01 Wet 45.7F 50F 32F 5 0% 0.00 in 0% 0 mhos 10 Yes - - -
03/28/2015 07:53 Wet 45.7F 50F 32F 5 0% 0.00 in 0% 0 mhos 7 Yes - - -
03/28/2015 07:47 Wet 45.9F 50F 32F 10 0% 0.00 in 0% 0 mhos 8 Yes - - -
03/28/2015 07:43 Wet 45.9F 50F 32F 5 0% 0.00 in 0% 0 mhos 8 Yes - - -
03/28/2015 07:33 Wet 45.9F 50F 32F 5 0% 0.00 in 0% 0 mhos 7 None None - -
03/28/2015 07:31 Wet 46.0F 50F 32F 5 0% 0.00 in 0% 0 mhos 7 Yes - - -
03/28/2015 07:23 Wet 46.0F 50F 32F 5 0% 0.00 in 0% 0 mhos 6 Yes - - -
03/28/2015 07:18 Wet 46.2F 50F 32F 5 0% 0.00 in 0% 0 mhos 6 Yes - - -
03/28/2015 07:13 Wet 46.2F 50F 32F 5 0% 0.00 in 0% 0 mhos 6 Yes - - -
03/28/2015 07:03 Wet 46.4F 50F 32F 5 0% 0.00 in 0% 0 mhos 5 Yes - - -
Date/Time
(MDT)
Sf
Temp Chem Water Layer Surface Precipitation
Sf Sub Frz Factor Pct Depth IcePct Cond Salin Type Intens Accum Rate
03/28/2015 07:01 Wet 46.4F 50F 32F 5 0% 0.00 in 0% 0 mhos 5 Yes - - -
03/28/2015 06:53 Wet 46.4F 50F 32F 5 0% 0.00 in 0% 0 mhos 6 Yes - - -
03/28/2015 06:48 Wet 46.4F 50F 32F 5 0% 0.00 in 0% 0 mhos 7 Yes - - -
03/28/2015 06:42 Wet 46.6F 50F 32F 5 0% 0.00 in 0% 0 mhos 8 Yes - - -
03/28/2015 06:32 Wet 46.6F 50F 32F 5 0% 0.00 in 0% 0 mhos 9 Yes - - -
03/28/2015 06:31 Wet 46.6F 50F 32F 10 0% 0.00 in 0% 0 mhos 9 Yes - - -
03/28/2015 06:22 Wet 46.6F 50F 32F 10 0% 0.00 in 0% 0 mhos 9 Yes - - -
03/28/2015 06:16 Wet 46.8F 50F 32F 5 0% 0.00 in 0% 0 mhos 9 Yes - - -
03/28/2015 06:12 Wet 46.8F 50F 32F 10 0% 0.00 in 0% 0 mhos 9 Yes - - -
03/28/2015 06:02 Wet 46.8F 50F 32F 10 0% 0.00 in 0% 0 mhos 9 Yes - - -
03/28/2015 06:00 Wet 46.8F 50F 32F 10 0% 0.00 in 0% 0 mhos 8 Yes - - -
03/28/2015 05:52 Wet 46.9F 50F 32F 5 0% 0.00 in 0% 0 mhos 8 Yes - - -
03/28/2015 05:47 Wet 46.9F 50F 32F 5 0% 0.00 in 0% 0 mhos 9 Yes - - -
03/28/2015 05:42 Wet 46.9F 50F 32F 5 0% 0.00 in 0% 0 mhos 10 Yes - - -
03/28/2015 05:32 Wet 46.8F 50F 32F 10 0% 0.00 in 0% 0 mhos 13 Yes - - -
Date/Time
(MDT)
Sf
Temp Chem Water Layer Surface Precipitation
Sf Sub Frz Factor Pct Depth IcePct Cond Salin Type Intens Accum Rate
03/28/2015 05:30 Wet 46.8F 50F 32F 15 0% 0.00 in 0% 0 mhos 15 Yes - - -
03/28/2015 05:22 Wet 46.8F 50F 32F 15 0% 0.00 in 0% 0 mhos 17 Yes - - -
03/28/2015 05:16 Wet 46.8F 50F 32F 15 0% 0.00 in 0% 0 mhos 19 Yes - - -
03/28/2015 05:12 Wet 46.9F 50F 32F 10 0% 0.00 in 0% 0 mhos 20 Yes - - -
03/28/2015 05:02 Wet 46.9F 50F 32F 65 0% 0.00 in 0% 0 mhos 27 Yes - - -
03/28/2015 05:01 Wet 46.9F 50F 32F 65 0% 0.00 in 0% 0 mhos 29 Yes - - -
03/28/2015 04:52 Wet 46.8F 50F 32F 95 0% 0.00 in 0% 0 mhos 34 Yes - - -
03/28/2015 04:46 Wet 46.8F 50F 32F 75 0% 0.00 in 0% 0 mhos 35 Yes - - -
03/28/2015 04:42 Wet 46.8F 50F 32F 95 0% 0.00 in 0% 0 mhos 35 Yes - - -
03/28/2015 04:32 Wet 46.6F 50F 32F 85 0% 0.00 in 0% 0 mhos 36 None None - -
03/28/2015 04:31 Wet 46.6F 50F 32F 95 0% 0.00 in 0% 0 mhos 36 None None - -
03/28/2015 04:22 Wet 46.6F 50F 32F 55 0% 0.00 in 0% 0 mhos 37 None None - -
03/28/2015 04:16 Wet 46.4F 50F 32F 55 0% 0.00 in 0% 0 mhos 37 Yes - - -
03/28/2015 04:12 Wet 46.4F 50F 32F 80 0% 0.00 in 0% 0 mhos 37 Yes - - -
03/28/2015 04:02 Wet 46.4F 50F 32F 95 0% 0.00 in 0% 0 mhos 37 None None - -
Date/Time
(MDT)
Sf
Temp Chem Water Layer Surface Precipitation
Sf Sub Frz Factor Pct Depth IcePct Cond Salin Type Intens Accum Rate
03/28/2015 04:01 Wet 46.4F 51F 32F 95 0% 0.00 in 0% 0 mhos 37 None None - -
03/28/2015 03:52 Wet 46.6F 51F 32F 95 0% 0.00 in 0% 0 mhos 37 Yes - - -
03/28/2015 03:46 Wet 46.8F 51F 32F 95 0% 0.00 in 0% 0 mhos 36 None None - -
03/28/2015 03:42 Wet 46.8F 51F 32F 85 0% 0.00 in 0% 0 mhos 36 Yes - - -
03/28/2015 03:32 Wet 46.9F 51F 32F 75 0% 0.00 in 0% 0 mhos 37 Yes - - -
03/28/2015 03:31 Wet 46.8F 51F 32F 60 0% 0.00 in 0% 0 mhos 38 Yes - - -
03/28/2015 03:22 Wet 46.6F 51F 32F 85 0% 0.00 in 0% 0 mhos 39 None None - -
03/28/2015 03:17 Wet 46.6F 51F 32F 85 0% 0.00 in 0% 0 mhos 39 None None - -
03/28/2015 03:11 Wet 46.6F 51F 32F 90 0% 0.00 in 0% 0 mhos 39 None None - -
03/28/2015 03:01 Wet 46.8F 51F 32F 65 0% 0.00 in 0% 0 mhos 40 Yes - - -
03/28/2015 03:01 Wet 46.8F 51F 32F 60 0% 0.00 in 0% 0 mhos 40 Yes - - -
03/28/2015 02:51 Wet 46.9F 51F 32F 85 0% 0.00 in 0% 0 mhos 36 Yes - - -
03/28/2015 02:46 Wet 46.8F 51F 32F 90 0% 0.00 in 0% 0 mhos 35 Yes - - -
03/28/2015 02:41 Wet 46.9F 51F 32F 75 0% 0.00 in 0% 0 mhos 37 Yes - - -
03/28/2015 02:31 Wet 46.8F 51F 32F 55 0% 0.00 in 0% 0 mhos 39 Yes - - -
Date/Time
(MDT)
Sf
Temp Chem Water Layer Surface Precipitation
Sf Sub Frz Factor Pct Depth IcePct Cond Salin Type Intens Accum Rate
03/28/2015 02:30 Wet 46.8F 51F 32F 40 0% 0.00 in 0% 0 mhos 38 Yes - - -
03/28/2015 02:21 Wet 46.6F 51F 32F 85 0% 0.00 in 0% 0 mhos 39 Yes - - -
03/28/2015 02:17 Wet 46.8F 51F 32F 80 0% 0.00 in 0% 0 mhos 37 None None - -
03/28/2015 02:11 Wet 46.9F 51F 32F 95 0% 0.00 in 0% 0 mhos 39 Yes - - -
03/28/2015 02:01 Wet 46.6F 51F 32F 95 0% 0.00 in 0% 1 mhos 71 Yes - - -
03/28/2015 02:01 Wet 46.6F 51F 32F 95 0% 0.00 in 0% 1 mhos 75 Yes - - -
03/28/2015 01:51 Wet 46.4F 51F 32F 95 0% 0.00 in 0% 1 mhos 73 Yes - - -
03/28/2015 01:46 Wet 46.2F 51F 32F 95 0% 0.00 in 0% 1 mhos 63 Yes - - -
03/28/2015 01:41 Wet 46.2F 51F 32F 25 0% 0.20 in 0% 0 mhos 2 Yes - - -
03/28/2015 01:31 Wet 46.6F 51F 32F 5 0% 0.00 in 0% 0 mhos 0 Yes - - -
03/28/2015 01:30 Wet 46.6F 51F 32F 5 0% 0.00 in 0% 0 mhos 0 Yes - - -
03/28/2015 01:21 Trace Moisture 46.2F 51F - 5 - - - 0 mhos 0 None None - -
03/28/2015 01:16 Trace Moisture 46.2F 51F - 5 - - - 0 mhos 0 None None - -
03/28/2015 01:11 Trace Moisture 46.2F 51F - 5 - - - 0 mhos 0 None None - -
03/28/2015 01:01 Trace Moisture 46.0F 51F - 5 - - - 0 mhos 0 None None - -
Date/Time
(MDT)
Sf
Temp Chem Water Layer Surface Precipitation
Sf Sub Frz Factor Pct Depth IcePct Cond Salin Type Intens Accum Rate
03/28/2015 01:01 Trace Moisture 46.0F 51F - 5 - - - 0 mhos 0 None None - -
03/28/2015 00:51 Trace Moisture 45.3F 51F - 5 - - - 0 mhos 0 None None - -
03/28/2015 00:47 Trace Moisture 45.1F 51F - 5 - - - 0 mhos 0 None None - -
03/28/2015 00:41 Trace Moisture 45.1F 51F - 5 - - - 0 mhos 0 None None - -
03/28/2015 00:31 Trace Moisture 45.0F 51F - 5 - - - 0 mhos 0 None None - -
03/28/2015 00:31 Trace Moisture 45.0F 51F - 5 - - - 0 mhos 0 None None - -
03/28/2015 00:21 Trace Moisture 45.0F 51F - 5 - - - 0 mhos 0 None None - -
03/28/2015 00:17 Trace Moisture 45.1F 51F - 5 - - - 0 mhos 0 None None - -
03/28/2015 00:11 Trace Moisture 45.1F 51F - 5 - - - 0 mhos 0 None None - -
03/28/2015 00:05 Trace Moisture 45.5F 51F - 5 - - - 0 mhos 0 None None - -
03/28/2015 00:01 Trace Moisture 45.5F 51F - 5 - - - 0 mhos 0 None None - -
03/27/2015 23:51 Trace Moisture 45.9F 51F - 5 - - - 0 mhos 0 None None - -
03/27/2015 23:46 Trace Moisture 45.9F 51F - 5 - - - 0 mhos 0 None None - -
03/27/2015 23:41 Trace Moisture 46.0F 51F - 5 - - - 0 mhos 0 None None - -
03/27/2015 23:30 Trace Moisture 46.2F 51F - 5 - - - 0 mhos 0 None None - -
Date/Time
(MDT)
Sf
Temp Chem Water Layer Surface Precipitation
Sf Sub Frz Factor Pct Depth IcePct Cond Salin Type Intens Accum Rate
03/27/2015 23:20 Trace Moisture 46.4F 51F - 5 - - - 0 mhos 0 None None - -
03/27/2015 23:16 Trace Moisture 46.8F 51F - 5 - - - 0 mhos 0 None None - -
03/27/2015 23:10 Trace Moisture 46.8F 51F - 5 - - - 0 mhos 0 None None - -
03/27/2015 23:00 Trace Moisture 47.3F 51F - 5 - - - 0 mhos 0 None None - -
03/27/2015 23:00 Trace Moisture 47.3F 51F - 5 - - - 0 mhos 0 None None - -
03/27/2015 22:50 Trace Moisture 47.7F 51F - 5 - - - 0 mhos 0 None None - -
03/27/2015 22:47 Trace Moisture 47.7F 50F - 5 - - - 0 mhos 0 None None - -
03/27/2015 22:40 Trace Moisture 48.0F 50F - 5 - - - 0 mhos 0 None None - -
03/27/2015 22:31 Trace Moisture 48.4F 50F - 5 - - - 0 mhos 0 None None - -
03/27/2015 22:30 Trace Moisture 48.4F 50F - 5 - - - 0 mhos 0 None None - -
03/27/2015 22:20 Trace Moisture 48.9F 50F - 5 - - - 0 mhos 0 None None - -
03/27/2015 22:17 Trace Moisture 48.9F 50F - 5 - - - 0 mhos 0 None None - -
03/27/2015 22:10 Trace Moisture 49.1F 50F - 5 - - - 0 mhos 0 None None - -
03/27/2015 22:01 Trace Moisture 49.5F 50F - 5 - - - 0 mhos 0 None None - -
03/27/2015 22:00 Trace Moisture 49.5F 50F - 5 - - - 0 mhos 0 None None - -
Date/Time
(MDT)
Sf
Temp Chem Water Layer Surface Precipitation
Sf Sub Frz Factor Pct Depth IcePct Cond Salin Type Intens Accum Rate
03/27/2015 21:50 Trace Moisture 49.8F 50F - 5 - - - 0 mhos 0 None None - -
03/27/2015 21:47 Trace Moisture 50.0F 50F - 5 - - - 0 mhos 0 None None - -
03/27/2015 21:40 Dry 50.2F 50F - - - - - 0 mhos 0 None None - -
03/27/2015 21:31 Dry 50.5F 50F - - - - - 0 mhos 0 None None - -
03/27/2015 21:30 Dry 50.5F 50F - - - - - 0 mhos 0 None None - -
03/27/2015 21:20 Dry 51.3F 50F - - - - - 0 mhos 0 None None - -
03/27/2015 21:16 Dry 51.4F 50F - - - - - 0 mhos 0 None None - -
03/27/2015 21:10 Dry 51.6F 50F - - - - - 0 mhos 0 None None - -
03/27/2015 21:01 Dry 52.2F 50F - - - - - 0 mhos 0 None None - -
03/27/2015 21:00 Dry 52.2F 50F - - - - - 0 mhos 0 None None - -
03/27/2015 20:50 Dry 52.7F 49F - - - - - 0 mhos 0 None None - -
03/27/2015 20:47 Dry 52.9F 49F - - - - - 0 mhos 0 None None - -
03/27/2015 20:40 Dry 53.4F 49F - - - - - 0 mhos 0 None None - -
03/27/2015 20:30 Dry 53.8F 49F - - - - - 0 mhos 0 None None - -
03/27/2015 20:20 Dry 54.7F 49F - - - - - 0 mhos 0 None None - -
Date/Time
(MDT)
Sf
Temp Chem Water Layer Surface Precipitation
Sf Sub Frz Factor Pct Depth IcePct Cond Salin Type Intens Accum Rate
03/27/2015 20:17 Dry 54.9F 49F - - - - - 0 mhos 0 None None - -
03/27/2015 20:10 Dry 55.4F 49F - - - - - 0 mhos 0 None None - -
03/27/2015 20:01 Dry 56.1F 49F - - - - - 0 mhos 0 None None - -
03/27/2015 20:00 Dry 56.1F 49F - - - - - 0 mhos 0 None None - -
03/27/2015 19:50 Dry 57.0F 49F - - - - - 0 mhos 0 None None - -
03/27/2015 19:47 Dry 57.4F 49F - - - - - 0 mhos 0 None None - -
03/27/2015 19:40 Dry 57.9F 49F - - - - - 0 mhos 0 None None - -
03/27/2015 19:31 Dry 58.6F 49F - - - - - 0 mhos 0 None None - -
03/27/2015 19:29 Dry 58.8F 49F - - - - - 0 mhos 0 None None - -
03/27/2015 19:19 Dry 59.9F 48F - - - - - 0 mhos 0 None None - -
03/27/2015 19:17 Dry 60.1F 48F - - - - - 0 mhos 0 None None - -
03/27/2015 19:09 Dry 61.0F 48F - - - - - 0 mhos 0 None None - -
Change End Date:
Copyright © 1998-2005 Surface Systems, Inc.
All Rights Reserved
Send comments about the data to:
SCAN Web ® is a registered trademark of Surface Systems, Inc.
SCAN Web Version 5.6